Погода в Ермаках

Россия / Тюменская область     57°15′18″N   70°56′14″E
В апреле 2022 года жителям России запретили посещать сайт meteo.paraplan.net по решению Генеральной прокуратуры. Аудитория сайта уменьшилась в 10 раз. Владельцы сайта не видят смысла в поддержке погодного сервера в таких условиях. Сайт будет закрыт в октябре.
темп.,
°C
ветер,
м/с
пор.,
м/с
влажн.,
%
обл.,
%
осадки,
мм/ч
давл.,
гПа
погр.,
м
4 октября, вт
вт423:00+5ююз51353100 0.0 1031485
02:00+5ююз51450100 0.0 1030490
05:00+5ююз51448100 0.0 1030457
08:00+6юз51355100 0.0 1029477
11:00+5юз4988100 1.3 1029380
14:00+6юз3989100 0.4 1029347
17:00+9зюз3877100 0.4 1030362
20:00+7юз2783100 0.0 1031158
5 октября, ср
ср523:00+7зюз239181 0.0 103155
02:00+6з2392100 0.0 103139
05:00+6з249391 0.0 103166
08:00+7зюз298224 0.0 1032234
11:00+13з4759100 0.0 1031475
14:00+16з474863 0.0 1030862
17:00+12зюз2545100 0.0 103089
20:00+9зюз3845100 0.0 1030191
6 октября, чт
чт623:00+8зюз2748100 0.0 1030184
02:00+6зюз2455100 0.0 103084
05:00+6зюз2254100 0.0 102943
08:00+6юз1353100 0.0 1029101
11:00+10юз2339100 0.0 1028373
14:00+13юз2435100 0.0 1027759
17:00+10ю224299 0.0 102628
20:00+8ю2646100 0.0 1026124
7 октября, пт
пт723:00+8ю2751100 0.0 1024142
02:00+7ю31046100 0.0 1023226
05:00+7ю31046100 0.0 1021213
08:00+8ю31139100 0.0 1019300
11:00+13ююз41027100 0.0 1018478
14:00+15ююз4924100 0.0 1016700
17:00+13ююз4929100 0.0 1015448
20:00+10ююз31138100 0.0 1014319
8 октября, сб
сб823:00+9ююз2742100 0.0 1013146
02:00+8ююз1142100 0.0 101211
05:00+8сз1154100 0.0 101010
08:00+9зюз0063100 0.0 100924
11:00+11з2361100 0.0 1008904
14:00+8зюз2480100 0.6 1007966
17:00+8юз3687100 1.2 1006344
20:00+7зюз2695100 0.1 1007216